Date String (YYYY-MM-DD hh:mm:ss) UTC,Instrument flags,absolute air pressure of the measurement (hPa),sample flow rate (lpm),inlet stack bypass flow (lpm),air temperature of the measurement (°C),ambient temperature measured by the external sensor (°C),aerosol sample conditioner tube jacket temperature (°C),OPC LED temperature (°C),internal box temperature (°C),relative humidity of the measurement (%),span deviation,mass concentration of particles derived from Lorenz-Mie calculation of OPC scattering (μg/m³),mass concentration of particles derived from Lorenz-Mie calculation of OPC scattering (μg/m³),mass concentration of particles derived from Lorenz-Mie calculation of OPC scattering (μg/m³)
DateTimeUTC,F1_M11,P_M11,Q1_M11,Q2_M11,T1_M11,T2_M11,T3_M11,T4_M11,T5_M11,U1_M11,ZSPAN_M11,X0_M11,X2_M11,X1_M11
2023-09-11 17:00:00,SystemResetWarning,0838.4,4.99,000.00,029.5,027.5,000.0,037.7,031.0,30.7,-000.8,0012.04,0006.50,0006.08
2023-09-11 17:01:00,SystemResetWarning,0838.4,5.00,000.00,029.4,025.7,000.0,037.6,030.6,31.0,-000.9,0011.97,0006.48,0006.09
2023-09-11 17:02:00,SystemResetWarning,0838.5,5.01,000.00,029.3,024.9,000.0,037.6,030.5,31.3,-000.8,0012.87,0006.49,0006.10
2023-09-11 17:03:00,SystemResetWarning,0838.4,5.01,000.00,029.1,025.0,000.0,037.6,030.2,31.5,-000.8,0012.82,0006.53,0006.13
2023-09-11 17:04:00,SystemResetWarning,0838.4,5.00,000.00,029.0,025.3,000.0,037.5,030.1,31.8,-000.7,0012.62,0006.52,0006.12
2023-09-11 17:05:00,SystemResetWarning,0838.4,5.00,000.00,029.0,025.7,000.0,037.5,030.1,31.8,-000.5,0012.57,0006.52,0006.12
2023-09-11 17:06:00,SystemResetWarning,0838.4,5.00,000.00,028.9,026.0,000.0,037.5,030.2,31.8,-000.6,0011.69,0006.51,0006.11
2023-09-11 17:07:00,SystemResetWarning,0838.4,5.01,000.00,028.9,026.3,000.0,037.5,030.2,31.7,-000.4,0011.28,0006.48,0006.09
2023-09-11 17:08:00,SystemResetWarning,0838.4,5.00,000.00,028.9,026.6,000.0,037.4,030.3,31.7,-000.7,0011.03,0006.41,0006.07
2023-09-11 17:09:00,SystemResetWarning,0838.4,4.99,000.00,028.9,026.8,000.0,037.4,030.3,31.5,-000.8,0010.84,0006.44,0006.09
2023-09-11 17:10:00,SystemResetWarning,0838.4,5.00,000.00,028.9,027.0,000.0,037.4,030.4,31.4,-000.9,0010.95,0006.47,0006.10
2023-09-11 17:11:00,SystemResetWarning,0838.4,5.00,000.00,028.9,027.2,000.0,037.4,030.4,31.4,-001.4,0011.03,0006.48,0006.08
2023-09-11 17:12:00,SystemResetWarning,0838.4,5.00,000.00,028.9,027.3,000.0,037.4,030.5,31.0,-001.5,0011.55,0006.47,0006.08
2023-09-11 17:13:00,SystemResetWarning,0838.5,5.00,000.00,028.9,027.4,000.0,037.4,030.5,30.9,-001.6,0010.89,0006.45,0006.08
2023-09-11 17:14:00,SystemResetWarning,0838.5,5.00,000.00,028.9,027.5,000.0,037.4,030.6,30.7,-001.8,0010.78,0006.42,0006.05
2023-09-11 17:15:00,SystemResetWarning,0838.5,5.00,000.00,029.0,027.5,000.0,037.4,030.6,30.5,-001.8,0010.87,0006.45,0006.07
2023-09-11 17:16:00,SystemResetWarning,0838.5,5.00,000.00,029.0,027.6,000.0,037.4,030.6,30.6,-001.7,0010.79,0006.43,0006.07
2023-09-11 17:17:00,SystemResetWarning,0838.5,5.00,000.00,029.0,027.7,000.0,037.4,030.6,30.7,-001.7,0010.88,0006.46,0006.10
2023-09-11 17:18:00,SystemResetWarning,0838.5,5.00,000.00,029.0,027.7,000.0,037.4,030.7,30.8,-001.8,0010.98,0006.50,0006.12
2023-09-11 17:19:00,SystemResetWarning,0838.5,4.99,000.00,029.0,027.7,000.0,037.4,030.7,30.9,-001.7,0010.96,0006.51,0006.14
2023-09-11 17:20:00,SystemResetWarning,0838.4,5.00,000.00,029.1,027.7,000.0,037.4,030.7,30.7,-001.3,0010.87,0006.50,0006.14
2023-09-11 17:21:00,SystemResetWarning,0838.5,5.00,000.00,029.1,027.8,000.0,037.4,030.7,30.5,-001.3,0010.79,0006.49,0006.14
2023-09-11 17:22:00,SystemResetWarning,0838.5,5.00,000.00,029.1,027.8,000.0,037.4,030.8,30.3,-001.5,0010.98,0006.51,0006.15
2023-09-11 17:23:00,SystemResetWarning,0838.4,5.02,000.00,029.1,027.8,000.0,037.4,030.8,30.2,-001.4,0010.52,0006.56,0006.18
2023-09-11 17:24:00,SystemResetWarning,0838.4,5.00,000.00,029.1,027.9,000.0,037.4,030.8,30.2,-001.3,0010.28,0006.58,0006.19
2023-09-11 17:25:00,SystemResetWarning,0838.4,4.99,000.00,029.2,027.9,000.0,037.4,030.8,30.3,-001.1,0010.91,0006.61,0006.20
2023-09-11 17:26:00,SystemResetWarning,0838.4,4.99,000.00,029.2,027.9,000.0,037.5,030.8,30.3,-000.8,0011.09,0006.65,0006.21
2023-09-11 17:27:00,SystemResetWarning,0838.4,5.01,000.00,029.2,027.9,000.0,037.5,030.8,30.5,-000.7,0011.18,0006.68,0006.22
2023-09-11 17:28:00,SystemResetWarning,0838.4,5.01,000.00,029.2,027.9,000.0,037.5,030.9,30.5,-000.3,0011.53,0006.71,0006.23
2023-09-11 17:29:00,SystemResetWarning,0838.4,5.00,000.00,029.2,027.9,000.0,037.5,030.9,30.7,-000.2,0011.59,0006.70,0006.23
2023-09-11 17:30:00,SystemResetWarning,0838.4,5.00,000.00,029.3,028.0,000.0,037.5,030.9,30.5,-000.4,0011.80,0006.75,0006.25
2023-09-11 17:31:00,SystemResetWarning,0838.4,5.00,000.00,029.3,028.0,000.0,037.5,030.9,30.4,-000.7,0012.10,0006.76,0006.25
2023-09-11 17:32:00,SystemResetWarning,0838.4,4.99,000.00,029.3,028.0,000.0,037.5,031.0,30.2,-000.7,0012.15,0006.75,0006.25
2023-09-11 17:33:00,SystemResetWarning,0838.3,5.00,000.00,029.3,028.0,000.0,037.5,031.0,30.0,-000.6,0012.25,0006.76,0006.27
2023-09-11 17:34:00,SystemResetWarning,0838.4,5.00,000.00,029.3,028.0,000.0,037.5,031.0,29.8,-000.7,0012.78,0006.77,0006.27
2023-09-11 17:35:00,SystemResetWarning,0838.4,5.01,000.00,029.3,028.0,000.0,037.6,031.0,30.2,-000.7,0012.92,0006.81,0006.27
2023-09-11 17:36:00,SystemResetWarning,0838.4,5.01,000.00,029.3,028.0,000.0,037.6,031.0,30.3,-000.7,0013.07,0006.83,0006.28
2023-09-11 17:37:00,SystemResetWarning,0838.4,5.01,000.00,029.4,028.1,000.0,037.6,031.0,30.1,-000.9,0013.09,0006.81,0006.29
2023-09-11 17:38:00,SystemResetWarning,0838.4,5.00,000.00,029.4,028.1,000.0,037.6,031.0,30.0,-001.2,0012.99,0006.79,0006.30
2023-09-11 17:39:00,SystemResetWarning,0838.5,5.00,000.00,029.4,028.1,000.0,037.6,031.0,29.8,-001.5,0012.66,0006.76,0006.29
2023-09-11 17:40:00,SystemResetWarning,0838.4,5.00,000.00,029.4,028.1,000.0,037.7,031.0,30.2,-001.5,0012.43,0006.74,0006.27
2023-09-11 17:41:00,SystemResetWarning,0838.4,4.99,000.00,029.4,028.1,000.0,037.7,031.1,30.3,-001.5,0012.31,0006.70,0006.25
2023-09-11 17:42:00,SystemResetWarning,0838.3,4.99,000.00,029.4,028.1,000.0,037.7,031.1,30.3,-001.1,0011.98,0006.68,0006.24
2023-09-11 17:43:00,SystemResetWarning,0838.3,5.00,000.00,029.4,028.1,000.0,037.7,031.1,30.1,-001.2,0011.92,0006.65,0006.22
2023-09-11 17:44:00,SystemResetWarning,0838.3,4.99,000.00,029.5,028.2,000.0,037.7,031.0,30.5,-001.3,0011.87,0006.63,0006.19
2023-09-11 17:45:00,SystemResetWarning,0838.3,5.00,000.00,029.5,028.2,000.0,037.7,031.1,30.1,-001.3,0011.08,0006.58,0006.17
2023-09-11 17:46:00,SystemResetWarning,0838.3,5.00,000.00,029.5,028.2,000.0,037.7,031.1,29.8,-001.2,0010.89,0006.51,0006.15
2023-09-11 17:47:00,SystemResetWarning,0838.3,5.01,000.00,029.5,028.2,000.0,037.7,031.1,29.9,-001.1,0010.26,0006.47,0006.12
2023-09-11 17:48:00,SystemResetWarning,0838.2,5.00,000.00,029.5,028.2,000.0,037.7,031.1,30.0,-001.3,0009.83,0006.41,0006.09
2023-09-11 17:49:00,SystemResetWarning,0838.2,5.01,000.00,029.5,028.2,000.0,037.8,031.1,29.7,-001.5,0009.76,0006.38,0006.06
2023-09-11 17:50:00,SystemResetWarning,0838.2,5.00,000.00,029.5,028.2,000.0,037.8,031.1,29.7,-001.5,0009.74,0006.37,0006.07
2023-09-11 17:51:00,SystemResetWarning,0838.2,5.00,000.00,029.5,028.2,000.0,037.8,031.2,29.8,-001.6,0009.99,0006.41,0006.09
2023-09-11 17:52:00,SystemResetWarning,0838.2,4.99,000.00,029.6,027.9,000.0,037.8,031.1,30.0,-001.4,0010.13,0006.48,0006.11
2023-09-11 17:53:00,SystemResetWarning,0838.1,5.00,000.00,029.5,026.2,000.0,037.7,030.8,30.4,-001.7,0010.14,0006.50,0006.11
2023-09-11 17:54:00,SystemResetWarning,0838.2,5.01,000.00,029.4,025.1,000.0,037.6,030.6,30.4,-002.0,0010.25,0006.57,0006.14
2023-09-11 17:55:00,SystemResetWarning,0838.2,5.01,000.00,029.3,025.1,000.0,037.6,030.4,30.7,-001.9,0010.50,0006.59,0006.16
2023-09-11 17:56:00,SystemResetWarning,0838.2,4.99,000.00,029.1,025.3,000.0,037.6,030.2,31.1,-001.8,0010.67,0006.62,0006.18
2023-09-11 17:57:00,SystemResetWarning,0838.2,5.00,000.00,029.1,025.7,000.0,037.6,030.2,31.5,-001.9,0011.03,0006.69,0006.19
2023-09-11 17:58:00,SystemResetWarning,0838.2,5.01,000.00,029.0,026.1,000.0,037.6,030.3,31.5,-001.9,0011.48,0006.72,0006.20
2023-09-11 17:59:00,SystemResetWarning,0838.2,5.01,000.00,029.0,026.4,000.0,037.5,030.3,31.3,-001.9,0011.53,0006.75,0006.20
